Regional Weather Roundup
Issued by NWS State College, PA

Home | Current Version | Previous Version | Text Only | Print | Product List | Glossary Off
Versions: 1 2 3 4 5 6 7 8 9 10 11 12 13 14 15 16 17 18 19 20 21 22 23 24 25 26 27 28 29 30 31 32 33 34 35 36 37 38 39 40 41 42 43 44 45 46 47 48 49 50

000
ASUS41 KCTP 200310
RWRCTP

REGIONAL WEATHER ROUNDUP
NATIONAL WEATHER SERVICE STATE COLLEGE PA
1100 PM EDT SAT APR 19 2014

Note: "fair" indicates few or no clouds below 12,000 feet with no
significant weather and/or obstructions to visibility.

* = STATION THAT DOES NOT REPORT PRECIPITATION /E.G. RAIN...SNOW...ETC/
    THUNDER OR FOG.

PAZ002>004-007>009-013>016-020>023-029>032-200400-
WESTERN PENNSYLVANIA

CITY           SKY/WX    TMP DP  RH WIND       PRES   REMARKS
ERIE           CLEAR     43  26  51 NE5       30.35S
MEADVILLE      MOCLDY    42  30  62 NE9       30.32S
FRANKLIN*      MOCLDY    46  27  46 N7        30.34R
NEW CASTLE     FAIR      46  31  56 CALM      30.33S
BEAVER COUNTY  NOT AVBL
BUTLER*        MOCLDY    46  21  36 CALM      30.32S
PITTSBURGH INT MOCLDY    53  28  38 N10       30.29S
PITTSBURGH     MOCLDY    58  18  21 N3        30.28S
INDIANA*       MOCLDY    45  30  57 E6        30.32R
LATROBE        CLEAR     45  32  61 CALM      30.31R
WASHINGTON CO* MOCLDY    43  28  56 CALM      30.31R
$$

PAZ004>006-010>012-017>019-024>028-033>037-041-042-045-046-049>053-200400-
CENTRAL PENNSYLVANIA

CITY           SKY/WX    TMP DP  RH WIND       PRES   REMARKS
BRADFORD       PTCLDY    42  24  49 E5        30.34S
DUBOIS         MOCLDY    47  24  40 E6        30.32R
CLEARFIELD     MOCLDY    48  24  39 E9        30.34R
JOHNSTOWN      MOCLDY    50  19  29 E5        30.30R
ALTOONA        MOCLDY    51  27  39 NE8       30.33R
STATE COLLEGE  MOCLDY    49  21  34 NE9       30.35R
WILLIAMSPORT   MOCLDY    47  29  49 CALM      30.39R
SELINSGROVE    PTCLDY    48  28  46 NE8       30.38R
FT INDIANTOWN  NOT AVBL
CAPITAL CITY   MOCLDY    48  28  46 CALM      30.34R
HARRISBURG     MOCLDY    54  19  25 CALM      30.33R
YORK           MOCLDY    41  33  73 CALM      30.33R
$$

PAZ038>040-043-044-047-048-054-055-060>062-067>071-200400-
EASTERN PENNSYLVANIA

CITY           SKY/WX    TMP DP  RH WIND       PRES   REMARKS
SCRANTON       CLEAR     47  25  42 VRB5      30.36S
MOUNT POCONO   PTCLDY    43  23  45 N8        30.33S
ALLENTOWN      MOCLDY    48  27  44 CALM      30.34R
QUAKERTOWN*    MOCLDY    50  25  37 N3        30.34R
READING        MOCLDY    53  25  33 N7        30.32S
LANCASTER      MOCLDY    51  26  37 N10       30.32R
COATESVILLE    MOCLDY    54  19  26 N7        30.32S
POTTSTOWN      MOCLDY    53  24  32 N9        30.33R
BLUE BELL      MOCLDY    55  23  28 CALM      30.31R
DOYLESTOWN     MOCLDY    51  23  33 NE6       30.32R
WILLOW GROVE   NOT AVBL
NORTH PHILA    CLOUDY    53  31  42 CALM      30.34R
PHILADELPHIA   CLOUDY    54  36  50 CALM      30.33R
$$



USA.gov is the U.S. government's official web portal to all federal, state and local government web resources and services.